| time (UTC) | temp F | wind direction | speed MPH | gust MPH | rain 1hr in | rain 24hr in | rain mn in | humidity % | barometer mb |
| 20260906073022 | 53 | 123 | 0.0 | 0.0 | 0.00 | 0.02 | 0.00 | 90 | 1019.0 |
| 20260906071521 | 53 | 123 | 0.0 | 1.0 | 0.00 | 0.02 | 0.00 | 90 | 1019.2 |
| 20260906070021 | 53 | 117 | 0.0 | 1.0 | 0.00 | 0.02 | 0.00 | 90 | 1019.3 |
| 20260906064519 | 53 | 113 | 0.0 | 0.0 | 0.00 | 0.02 | 0.00 | 90 | 1019.3 |
| 20260906063021 | 53 | 113 | 0.0 | 1.0 | 0.00 | 0.02 | 0.00 | 89 | 1019.3 |
| 20260906061518 | 53 | 127 | 0.0 | 1.0 | 0.00 | 0.02 | 0.00 | 89 | 1019.3 |
| 20260906060015 | 54 | 116 | 0.0 | 2.0 | 0.00 | 0.02 | 0.02 | 89 | 1019.3 |
| 20260906054516 | 54 | 117 | 0.0 | 1.0 | 0.00 | 0.02 | 0.02 | 89 | 1019.4 |
| 20260906053014 | 54 | 127 | 0.0 | 1.0 | 0.00 | 0.02 | 0.02 | 88 | 1019.4 |
| 20260906051514 | 54 | 82 | 0.0 | 0.0 | 0.00 | 0.02 | 0.02 | 88 | 1019.4 |
| 20260906050040 | 54 | 66 | 0.0 | 1.0 | 0.00 | 0.02 | 0.02 | 88 | 1019.4 |
| 20260906044513 | 54 | 70 | 0.0 | 0.0 | 0.00 | 0.02 | 0.02 | 88 | 1019.3 |
| 20260906043012 | 54 | 69 | 0.0 | 0.0 | 0.00 | 0.02 | 0.02 | 87 | 1019.1 |
| 20260906041516 | 54 | 69 | 0.0 | 0.0 | 0.00 | 0.02 | 0.02 | 87 | 1019.0 |
| 20260906040011 | 54 | 69 | 0.0 | 0.0 | 0.00 | 0.02 | 0.02 | 87 | 1019.2 |
| 20260906034512 | 54 | 69 | 0.0 | 0.0 | 0.00 | 0.02 | 0.02 | 87 | 1019.2 |
| 20260906033011 | 54 | 69 | 0.0 | 0.0 | 0.00 | 0.02 | 0.02 | 87 | 1019.1 |
| 20260906031509 | 54 | 69 | 0.0 | 0.0 | 0.00 | 0.02 | 0.02 | 87 | 1019.2 |
| 20260906030008 | 54 | 69 | 0.0 | 0.0 | 0.00 | 0.02 | 0.02 | 87 | 1019.2 |
| 20260906024510 | 54 | 69 | 0.0 | 0.0 | 0.00 | 0.02 | 0.02 | 87 | 1019.1 |
| 20260906023008 | 55 | 69 | 0.0 | 0.0 | 0.00 | 0.02 | 0.02 | 87 | 1019.0 |
| 20260906021506 | 55 | 69 | 0.0 | 0.0 | 0.00 | 0.02 | 0.02 | 86 | 1019.0 |
| 20260906020005 | 55 | 65 | 0.0 | 0.0 | 0.00 | 0.02 | 0.02 | 86 | 1018.7 |
| 20260906014508 | 55 | 67 | 0.0 | 0.0 | 0.00 | 0.02 | 0.02 | 86 | 1018.8 |
| 20260906013004 | 55 | 67 | 0.0 | 0.0 | 0.00 | 0.02 | 0.02 | 86 | 1018.6 |
| 20260906011501 | 55 | 68 | 0.0 | 0.0 | 0.00 | 0.02 | 0.02 | 85 | 1018.5 |
| 20260906010100 | 55 | 67 | 0.0 | 0.0 | 0.00 | 0.02 | 0.02 | 85 | 1018.5 |
| 20260906004601 | 55 | 67 | 0.0 | 0.0 | 0.00 | 0.02 | 0.02 | 85 | 1018.5 |
| 20260906003107 | 56 | 66 | 0.0 | 0.0 | 0.00 | 0.02 | 0.02 | 84 | 1018.6 |
| 20260906001559 | 55 | 68 | 0.0 | 0.0 | 0.00 | 0.02 | 0.02 | 84 | 1018.5 |
| 20260906000058 | 56 | 65 | 0.0 | 0.0 | 0.00 | 0.02 | 0.02 | 84 | 1018.3 |
| 20260905234613 | 56 | 66 | 0.0 | 0.0 | 0.00 | 0.02 | 0.02 | 84 | 1018.2 |
| 20260905233057 | 56 | 64 | 0.0 | 1.0 | 0.00 | 0.02 | 0.02 | 83 | 1018.2 |
| 20260905231556 | 56 | 75 | 0.0 | 1.0 | 0.00 | 0.02 | 0.02 | 83 | 1018.3 |
| 20260905230054 | 56 | 77 | 0.0 | 1.0 | 0.00 | 0.02 | 0.02 | 83 | 1018.3 |
| 20260905224551 | 56 | 62 | 0.0 | 1.0 | 0.00 | 0.02 | 0.02 | 83 | 1018.3 |
| 20260905223051 | 56 | 63 | 0.0 | 0.0 | 0.00 | 0.02 | 0.02 | 83 | 1018.6 |
| 20260905221547 | 55 | 65 | 0.0 | 0.0 | 0.00 | 0.02 | 0.02 | 83 | 1018.7 |
| 20260905220048 | 56 | 89 | 0.0 | 0.0 | 0.00 | 0.02 | 0.02 | 83 | 1018.7 |
| 20260905214557 | 55 | 66 | 0.0 | 0.0 | 0.00 | 0.02 | 0.02 | 83 | 1018.7 |
| 20260905213047 | 55 | 79 | 0.0 | 1.0 | 0.00 | 0.02 | 0.02 | 84 | 1018.7 |
| 20260905211544 | 55 | 62 | 0.0 | 1.0 | 0.00 | 0.02 | 0.02 | 84 | 1018.7 |
| 20260905210045 | 55 | 67 | 0.0 | 2.0 | 0.00 | 0.02 | 0.02 | 86 | 1018.6 |
| 20260905204540 | 54 | 73 | 0.0 | 2.0 | 0.00 | 0.02 | 0.02 | 86 | 1018.6 |
| 20260905203040 | 54 | 62 | 0.0 | 2.0 | 0.00 | 0.02 | 0.02 | 87 | 1018.5 |
| 20260905201540 | 54 | 72 | 0.0 | 0.0 | 0.00 | 0.02 | 0.02 | 87 | 1018.7 |
| 20260905200042 | 54 | 65 | 0.0 | 1.0 | 0.00 | 0.02 | 0.02 | 87 | 1018.6 |
| 20260905194534 | 54 | 64 | 0.0 | 0.0 | 0.00 | 0.02 | 0.02 | 87 | 1018.6 |
| 20260905193033 | 52 | 83 | 0.0 | 2.0 | 0.00 | 0.02 | 0.02 | 90 | 1018.5 |
| 20260905191532 | 52 | 75 | 0.0 | 0.0 | 0.00 | 0.02 | 0.02 | 90 | 1018.7 |
| 20260905190031 | 52 | 85 | 0.0 | 0.0 | 0.00 | 0.02 | 0.02 | 90 | 1018.7 |
| 20260905184537 | 52 | 68 | 0.0 | 0.0 | 0.00 | 0.02 | 0.02 | 90 | 1018.7 |
| 20260905183031 | 52 | 68 | 0.0 | 0.0 | 0.00 | 0.02 | 0.02 | 90 | 1018.7 |
| 20260905181530 | 52 | 68 | 0.0 | 0.0 | 0.00 | 0.02 | 0.02 | 90 | 1018.7 |
| 20260905180029 | 52 | 67 | 0.0 | 0.0 | 0.01 | 0.02 | 0.02 | 90 | 1018.7 |
| 20260905174535 | 52 | 68 | 0.0 | 0.0 | 0.01 | 0.02 | 0.02 | 92 | 1018.6 |
| 20260905173027 | 51 | 65 | 0.0 | 0.0 | 0.01 | 0.02 | 0.02 | 92 | 1018.4 |
| 20260905171525 | 51 | 68 | 0.0 | 0.0 | 0.01 | 0.02 | 0.02 | 93 | 1018.2 |
| 20260905170022 | 50 | 66 | 0.0 | 0.0 | 0.00 | 0.01 | 0.01 | 94 | 1017.9 |
| 20260905164522 | 51 | 64 | 0.0 | 1.0 | 0.00 | 0.01 | 0.01 | 93 | 1017.9 |
| 20260905163021 | 50 | 77 | 0.0 | 2.0 | 0.00 | 0.01 | 0.01 | 94 | 1017.7 |
| 20260905161521 | 50 | 79 | 0.0 | 2.0 | 0.00 | 0.01 | 0.01 | 94 | 1017.6 |
| 20260905160037 | 50 | 76 | 0.0 | 1.0 | 0.00 | 0.01 | 0.01 | 94 | 1017.3 |
| 20260905154519 | 50 | 68 | 0.0 | 2.0 | 0.00 | 0.01 | 0.01 | 95 | 1017.6 |
| 20260905153018 | 50 | 80 | 0.0 | 1.0 | 0.00 | 0.01 | 0.01 | 95 | 1017.4 |
| 20260905151518 | 49 | 66 | 0.0 | 2.0 | 0.00 | 0.01 | 0.01 | 95 | 1017.6 |
| 20260905150024 | 49 | 67 | 0.0 | 2.0 | 0.00 | 0.01 | 0.01 | 96 | 1017.5 |
| 20260905144536 | 49 | 75 | 0.0 | 1.0 | 0.00 | 0.01 | 0.01 | 96 | 1017.4 |
| 20260905143021 | 49 | 77 | 0.0 | 3.0 | 0.00 | 0.01 | 0.01 | 96 | 1017.4 |
| 20260905141520 | 49 | 78 | 0.0 | 1.0 | 0.00 | 0.01 | 0.01 | 96 | 1017.3 |
| 20260905140013 | 49 | 68 | 0.0 | 2.0 | 0.00 | 0.01 | 0.01 | 96 | 1017.4 |
| 20260905134516 | 49 | 77 | 0.0 | 1.0 | 0.00 | 0.01 | 0.01 | 96 | 1017.3 |
| 20260905133010 | 49 | 77 | 0.0 | 1.0 | 0.00 | 0.01 | 0.01 | 96 | 1017.0 |
| 20260905131509 | 49 | 84 | 0.0 | 2.0 | 0.00 | 0.01 | 0.01 | 96 | 1017.0 |
| 20260905130007 | 49 | 67 | 0.0 | 1.0 | 0.00 | 0.01 | 0.01 | 96 | 1016.9 |
| 20260905124507 | 49 | 70 | 0.0 | 1.0 | 0.00 | 0.01 | 0.01 | 96 | 1016.8 |
| 20260905123006 | 49 | 68 | 0.0 | 1.0 | 0.00 | 0.01 | 0.01 | 96 | 1016.7 |
| 20260905121505 | 49 | 84 | 0.0 | 1.0 | 0.00 | 0.01 | 0.01 | 96 | 1016.5 |
| 20260905120003 | 49 | 67 | 0.0 | 2.0 | 0.00 | 0.01 | 0.01 | 96 | 1016.0 |
| 20260905114501 | 49 | 68 | 0.0 | 0.0 | 0.00 | 0.01 | 0.01 | 96 | 1016.2 |
| 20260905113102 | 50 | 77 | 0.0 | 1.0 | 0.00 | 0.01 | 0.01 | 96 | 1015.9 |
| 20260905111600 | 50 | 75 | 0.0 | 0.0 | 0.00 | 0.01 | 0.01 | 96 | 1016.0 |
| 20260905110057 | 50 | 74 | 0.0 | 1.0 | 0.00 | 0.01 | 0.01 | 96 | 1015.8 |
| 20260905104556 | 50 | 68 | 0.0 | 2.0 | 0.00 | 0.01 | 0.01 | 96 | 1015.3 |
| 20260905103054 | 50 | 63 | 0.0 | 2.0 | 0.00 | 0.01 | 0.01 | 96 | 1015.1 |
| 20260905101553 | 50 | 69 | 0.0 | 2.0 | 0.00 | 0.01 | 0.01 | 96 | 1015.1 |
| 20260905100109 | 51 | 67 | 0.0 | 2.0 | 0.01 | 0.01 | 0.01 | 96 | 1015.0 |
| 20260905094604 | 51 | 68 | 0.0 | 0.0 | 0.01 | 0.01 | 0.01 | 96 | 1015.1 |
| 20260905093049 | 51 | 75 | 0.0 | 1.0 | 0.01 | 0.01 | 0.01 | 95 | 1015.3 |
| 20260905091558 | 51 | 76 | 0.0 | 0.0 | 0.01 | 0.01 | 0.01 | 95 | 1015.3 |
| 20260905090046 | 51 | 77 | 0.0 | 1.0 | 0.00 | 0.00 | 0.00 | 95 | 1015.0 |
| 20260905084545 | 51 | 83 | 0.0 | 1.0 | 0.00 | 0.00 | 0.00 | 95 | 1014.7 |
| 20260905083044 | 51 | 67 | 0.0 | 1.0 | 0.00 | 0.00 | 0.00 | 95 | 1015.1 |
| 20260905081544 | 51 | 67 | 0.0 | 3.0 | 0.00 | 0.00 | 0.00 | 95 | 1015.0 |
| 20260905080042 | 52 | 66 | 0.0 | 3.0 | 0.00 | 0.00 | 0.00 | 95 | 1014.9 |
| 20260905074552 | 52 | 59 | 0.0 | 3.0 | 0.00 | 0.00 | 0.00 | 95 | 1014.7 |